PCSAT (NO-44)

Last updated on Mon Sep 21 2026 00:03:14 GMT+0000 (Coordinated Universal Time)

1 26931U 01043C 26263.56710779 .00000034 00000+0 43518-4 0 9991 2 26931 67.0532 357.5693 0005843 272.9982 87.0452 14.31985094304101
UTC large
Height (km)
Speed (km/s)
/
Latitude / Longitude
Inclination (degrees)
Orbital Period (minutes)
Azimuth
Elevation
Range (km)
Doppler Factor

Next 0 passes for location: London (51.5072 / 0.1276)

No passes found over London.
PCSAT (NO-44)